Terminal Aerodrome Forecast
Issued by NWS

Home | Current Version | Previous Version | Text Only | Print | Product List | Glossary On
Versions: 1 2 3 4 5 6 7 8 9 10 11 12 13 14 15 16 17 18
000
FTUS42 KTAE 191100
TAFDHN
TAF
KDHN 191120Z 1912/2012 13003KT P6SM BKN250
     FM191500 10006KT P6SM SCT100 BKN250
     FM200300 07003KT P6SM SKC=

USA.gov is the U.S. government's official web portal to all federal, state and local government web resources and services.